Weather History for Columbus, OH

Change the Weather History Date:

Tuesday, April 2, 2013

  Actual Average Record
Temperature  
Mean Temperature 35 °F 48 °F  
Max Temperature 45 °F 58 °F 84 °F (2010)
Min Temperature 25 °F 38 °F 20 °F (1907)
Degree Days  
Heating Degree Days 30 17  
Month to date heating degree days 55 34  
Since 1 July heating degree days 4764 4745  
Cooling Degree Days 0 0  
Month to date cooling degree days 0 0  
Year to date cooling degree days 0 0  
Moisture  
Dew Point 14 °F    
Average Humidity 46    
Maximum Humidity 63    
Minimum Humidity 29    
Precipitation  
Precipitation 0.00 in 0.11 in 1.51 in (1977)
Month to date precipitation T 0.23  
Year to date precipitation 7.19 8.23  
Snow  
Snow 0.00 in 0.00 in 2.60 in (1886)
Month to date snowfall T 0.1  
Since 1 July snowfall 41.2 25.7  
Snow Depth 0.00 in    
Sea Level Pressure  
Sea Level Pressure 30.20 in    
Wind  
Wind Speed 9 mph (WNW)    
Max Wind Speed 21 mph    
Max Gust Speed 25 mph    
Visibility 10 miles    
Events      
T = Trace of Precipitation, MM = Missing Value Source: NWS Daily Summary

Daily Weather History Graph

Daily Weather History Graph

Search for Another Location

Airport:

Trip Planner

Search our weather history database for the weather conditions in past years. The results will help you decide how hot, cold, wet, or windy it might be!

Date:

Astronomy

Apr. 02, 2013 Rise Set
Actual Time 7:13 AM EDT 7:57 PM EDT
Civil Twilight 6:46 AM EDT 8:24 PM EDT
Nautical Twilight 6:13 AM EDT 8:56 PM EDT
Astronomical Twilight 5:40 AM EDT 9:30 PM EDT
Moon 2:00 AM EDT (4/2) 12:03 PM EDT (4/2)
Length of Visible Light 13h 38m
Length of Day
12h 43m
Waning Gibbous, 56% of the Moon is Illuminated
Apr 2
Waning Gibbous
Apr 3
Last Quarter
Apr 10
New
Apr 18
First Quarter
Apr 25
Full

Hourly Weather History & Observations

Time (EDT) Temp. Windchill Dew Point Humidity Pressure Visibility Wind Dir Wind Speed Gust Speed Precip Events Conditions
12:51 AM 33.1 °F 24.4 °F 12.9 °F 43% 30.13 in 10.0 mi NNW 11.5 mph - N/A   Scattered Clouds
1:51 AM 30.9 °F 22.2 °F 12.9 °F 47% 30.14 in 10.0 mi NNW 10.4 mph - N/A   Clear
2:51 AM 30.0 °F 23.2 °F 12.9 °F 49% 30.14 in 10.0 mi NNW 6.9 mph - N/A   Overcast
3:51 AM 28.4 °F 22.2 °F 12.2 °F 51% 30.12 in 10.0 mi NNW 5.8 mph - N/A   Overcast
4:51 AM 28.0 °F 22.8 °F 12.9 °F 53% 30.15 in 10.0 mi WNW 4.6 mph - N/A   Clear
5:51 AM 27.0 °F 20.5 °F 14.0 °F 58% 30.17 in 10.0 mi West 5.8 mph - N/A   Clear
6:51 AM 26.1 °F 20.5 °F 15.1 °F 63% 30.20 in 10.0 mi WSW 4.6 mph - N/A   Clear
7:51 AM 27.0 °F 23.0 °F 15.1 °F 61% 30.22 in 10.0 mi West 3.5 mph - N/A   Clear
8:51 AM 30.2 °F 25.4 °F 15.8 °F 55% 30.21 in 10.0 mi West 4.6 mph - N/A   Clear
9:51 AM 34.0 °F 26.0 °F 15.1 °F 46% 30.25 in 10.0 mi WNW 10.4 mph - N/A   Clear
10:51 AM 35.1 °F 25.9 °F 15.1 °F 44% 30.25 in 10.0 mi West 13.8 mph - N/A   Scattered Clouds
11:51 AM 37.0 °F 29.3 °F 16.0 °F 42% 30.26 in 10.0 mi West 11.5 mph - N/A   Mostly Cloudy
12:51 PM 39.0 °F 31.0 °F 15.1 °F 38% 30.24 in 10.0 mi West 13.8 mph 19.6 mph N/A   Scattered Clouds
1:51 PM 39.9 °F 32.1 °F 14.0 °F 35% 30.22 in 10.0 mi West 13.8 mph 19.6 mph N/A   Scattered Clouds
2:51 PM 42.8 °F 35.8 °F 14.0 °F 31% 30.18 in 10.0 mi West 13.8 mph 18.4 mph N/A   Scattered Clouds
3:51 PM 42.8 °F 36.6 °F 12.2 °F 29% 30.16 in 10.0 mi WNW 11.5 mph 23.0 mph N/A   Partly Cloudy
4:51 PM 43.0 °F 35.7 °F 12.0 °F 28% 30.18 in 10.0 mi NW 15.0 mph 21.9 mph N/A   Scattered Clouds
5:51 PM 42.1 °F 35.2 °F 14.0 °F 32% 30.19 in 10.0 mi WNW 12.7 mph 23.0 mph N/A   Scattered Clouds
6:51 PM 42.1 °F 37.7 °F 14.0 °F 32% 30.20 in 10.0 mi WNW 6.9 mph 17.3 mph N/A   Scattered Clouds
7:51 PM 39.2 °F 31.2 °F 15.8 °F 39% 30.19 in 10.0 mi WNW 13.8 mph - N/A   Scattered Clouds
8:51 PM 39.0 °F 34.0 °F 14.0 °F 36% 30.22 in 10.0 mi NW 6.9 mph - N/A   Partly Cloudy
9:51 PM 37.0 °F 33.3 °F 16.0 °F 42% 30.24 in 10.0 mi West 4.6 mph - N/A   Clear
10:51 PM 37.0 °F 31.6 °F 15.1 °F 41% 30.25 in 10.0 mi WNW 6.9 mph - N/A   Clear
11:51 PM 36.0 °F 30.3 °F 14.0 °F 41% 30.27 in 10.0 mi NW 6.9 mph - N/A   Clear